Location: Newark
(58.8333°N, 23.5833°E)
Time: 18:09:44
(UTC+00:00)

Tiros 1 despin weight - Pass Details

Date: 17 November 2019
Orbit: 594 x 642 km, 48.2° (Epoch: 06 December)

Event Time Altitude Azimuth Distance (km) Brightness Sun altitude
Rises 13:45:55 0° 225° (SW) 2,831 ? 0.6°
Reaches altitude 10° 13:48:48 10° 206° (SSW) 1,936 ? 0.3°
Maximum altitude 13:51:45 18° 164° (SSE) 1,508 ? 0.0°
Drops below altitude 10° 13:54:44 10° 122° (ESE) 1,954 ? -0.3°
Sets 13:57:39 0° 103° (ESE) 2,869 ? -0.6°
